Change the Weather History Date:

Monday, December 10, 2012

  Actual Average Record
Temperature  
Mean Temperature 32 °F -  
Max Temperature 33 °F 37 °F 45 °F (2014)
Min Temperature 30 °F 29 °F 15 °F (2005)
Degree Days  
Heating Degree Days 34    
Moisture  
Dew Point 30 °F    
Average Humidity 91    
Maximum Humidity 96    
Minimum Humidity 88    
Precipitation  
Precipitation 0.24 in - - ()
Sea Level Pressure  
Sea Level Pressure 30.32 in    
Wind  
Wind Speed 1 mph (SSW)    
Max Wind Speed 4 mph    
Max Gust Speed -    
Averages and records for this station are not official NWS values.
T = Trace of Precipitation, MM = Missing Value Source: NWS Daily Summary

Daily Weather History Graph

Daily Weather History Graph

Search for Another Location

Airport or City:

Trip Planner

Search our weather history database for the weather conditions in past years. The results will help you decide how hot, cold, wet, or windy it might be!

Date:

Astronomy

Dec. 10, 2012 Rise Set
Actual Time 8:14 AM MST 4:56 PM MST
Civil Twilight 7:39 AM MST 5:31 PM MST
Nautical Twilight 7:01 AM MST 6:08 PM MST
Astronomical Twilight 6:25 AM MST 6:45 PM MST
Moon 4:56 AM MST (12/10) 2:54 PM MST (12/10)
Length of Visible Light 9h 51m
Length of Day
8h 42m
Waning Crescent, 10% of the Moon is Illuminated
Dec 10
Waning Crescent
Dec 13
New
Dec 19
First Quarter
Dec 28
Full
Jan 4
Last Quarter

Hourly Weather History & Observations

Time (MST) Temp. Windchill Dew Point Humidity Pressure Visibility Wind Dir Wind Speed Gust Speed Precip Events Conditions
12:52 AM 30.0 °F 26.5 °F 27.0 °F 88% 30.34 in - SSW 3.5 mph - 0.03 in   Unknown
1:52 AM 30.0 °F - 28.0 °F 92% 30.33 in - Calm Calm - 0.04 in   Unknown
2:52 AM 30.0 °F - 28.0 °F 92% 30.32 in - Calm Calm - 0.04 in   Unknown
3:52 AM 30.0 °F - 28.0 °F 92% 30.31 in - Calm Calm - 0.05 in   Unknown
4:52 AM 30.0 °F - 28.0 °F 92% 30.32 in - Calm Calm - 0.03 in   Unknown
5:52 AM 30.9 °F - 28.0 °F 89% 30.35 in - Calm Calm - 0.02 in   Unknown
6:52 AM 30.9 °F - 28.9 °F 92% 30.36 in - Calm Calm - 0.02 in   Unknown
7:52 AM 30.9 °F - 28.9 °F 92% 30.37 in - Calm Calm - N/A   Unknown
8:52 AM 30.9 °F - 28.9 °F 92% 30.37 in - Calm Calm - N/A   Unknown
9:52 AM 32.0 °F - 28.9 °F 88% 30.38 in - Calm Calm - N/A   Unknown
10:52 AM 32.0 °F - 28.9 °F 88% 30.38 in - Calm Calm - N/A   Unknown
11:52 AM 32.0 °F - 28.9 °F 88% 30.36 in - Calm Calm - N/A   Unknown
12:52 PM 33.1 °F - 30.0 °F 89% 30.34 in - Calm Calm - N/A   Unknown
1:52 PM 33.1 °F - 30.9 °F 92% 30.31 in - Calm Calm - N/A   Unknown
2:52 PM 33.1 °F - 30.9 °F 92% 30.31 in - Calm Calm - N/A   Unknown
3:52 PM 33.1 °F - 30.9 °F 92% 30.32 in - Calm Calm - N/A   Unknown
4:52 PM 33.1 °F - 30.9 °F 92% 30.31 in - Calm Calm - N/A   Unknown
5:52 PM 33.1 °F - 30.9 °F 92% 30.30 in - Calm Calm - N/A   Unknown
6:52 PM 33.1 °F - 30.9 °F 92% 30.28 in - Calm Calm - N/A   Unknown
7:52 PM 32.0 °F - 30.9 °F 96% 30.27 in - Calm Calm - N/A   Unknown
8:52 PM 33.1 °F - 30.9 °F 92% 30.27 in - Calm Calm - N/A   Unknown
9:52 PM 33.1 °F - 30.9 °F 92% 30.25 in - Calm Calm - N/A   Unknown
10:52 PM 33.1 °F - 30.9 °F 92% 30.24 in - Calm Calm - 0.01 in   Unknown
11:52 PM 33.1 °F - 30.9 °F 92% 30.22 in - Calm Calm - N/A   Unknown